Location: Unspecified
(0.0000°N, 0.0000°E)
Time: 13:28:55
(UTC+00:00)

Vanguard 3 - Pass Details

Date: 14 December 2025
Orbit: 507 x 3207 km, 33.3° (Epoch: 22 January)

Event Time Altitude Azimuth Distance (km) Brightness Sun altitude
Rises 10:44:03 0° 257° (WSW) 7,013 11.8 61.1°
Reaches altitude 10° 10:50:01 10° 266° (W) 5,743 11.4 61.9°
Maximum altitude 11:03:32 30° 320° (NW) 3,386 10.4 63.6°
Drops below altitude 10° 11:12:40 10° 19° (NNE) 3,819 10.5 64.6°
Sets 11:15:46 0° 30° (NNE) 4,441 10.8 64.9°
